Regional Weather Roundup
Issued by NWS

Home | Current Version | Previous Version | Graphics & Text | Print | Product List | Glossary On
Versions: 1 2 3 4 5 6 7 8 9 10 11 12 13 14 15 16 17 18 19 20 21 22 23 24 25 26 27 28 29 30 31 32 33 34 35 36 37 38 39 40 41 42 43 44 45 46 47 48 49 50
000
ASUS43 KLMK 041902
RWRKY
KENTUCKY REGIONAL WEATHER ROUNDUP
NATIONAL WEATHER SERVICE LOUISVILLE KY
300 PM EDT WED MAY 04 2016

NOTE "FAIR" INDICATES FEW OR NO CLOUDS BELOW 12,000 FEET
WITH NO SIGNIFICANT WEATHER AND/OR OBSTRUCTIONS TO VISIBILITY.

KYZ001>023-026-027-061>063-070>075-042000-
WESTERN AND SOUTH CENTRAL KENTUCKY

CITY           SKY/WX    TMP DP  RH WIND       PRES   REMARKS
PADUCAH        PTSUNNY   68  45  43 N13G26    29.75S
HENDERSON      PTSUNNY   64  45  48 NW13G21   29.73R
OWENSBORO      MOSUNNY   65  48  53 NW15G22   29.72F
HOPKINSVILLE   NOT AVBL
BOWLING GREEN  CLOUDY    63  52  67 W14G21    29.72F
GLASGOW        NOT AVBL
$$

KYZ024-025-028>034-038-045-046-053-042000-
NORTH CENTRAL KENTUCKY

CITY           SKY/WX    TMP DP  RH WIND       PRES   REMARKS
LOUISVILLE/SDF PTSUNNY   58  51  78 W7        29.69F
LOUISVILLE/LOU CLOUDY    56  51  84 W8        29.70F
FORT KNOX      NOT AVBL
$$

KYZ035>037-039>044-047>052-055>060-089>105-042000-
NORTHEAST KENTUCKY

CITY           SKY/WX    TMP DP  RH WIND       PRES   REMARKS
LEXINGTON      LGT RAIN  53  49  86 SW9       29.69F
COVINGTON      CLOUDY    55  50  83 SW7       29.67S
FRANKFORT      CLOUDY    56  49  77 W8G20     29.68S
$$

KYZ054-064>069-076>088-106>120-042000-
SOUTHEAST KENTUCKY

CITY           SKY/WX    TMP DP  RH WIND       PRES   REMARKS
JACKSON        CLOUDY    65  43  44 VRB5      29.68F
LONDON         CLOUDY    63  38  39 W10       29.69F
SOMERSET       NOT AVBL
MIDDLESBORO    NOT AVBL
MONTICELLO     LGT RAIN  54  51  90 NW7       29.77R
$$




USA.gov is the U.S. government's official web portal to all federal, state and local government web resources and services.